When you browse on this site, cookies collect data to enhance your experience and personalize the content and advertising you see.
Visit our Privacy Policy to learn more. By continuing to use the site, you agree to this use of cookies and data.
  • In Hungary
  • List of Countries
  • For 7 days
  • Water Temperature
  • Satellite Maps
  • Weather Map
  • News
  • Weather Widgets
  • user-avatar
    Login

    Hourly Weather Multan

    Today, 20 January, Sunday

    Time Temperature Precipitation Wind Pressure Humidity
    00:00 +18°C° 0 mm 2 mps 752 mmHg 27%
    01:00 +18°C° 0 mm 2 mps 752 mmHg 28%
    02:00 +17°C° 0 mm 2 mps 752 mmHg 28%
    03:00 +17°C° 0 mm 2 mps 752 mmHg 29%
    04:00 +17°C° 0 mm 2 mps 752 mmHg 29%
    05:00 +17°C° 0 mm 2 mps 752 mmHg 29%
    06:00 +17°C° 0 mm 2 mps 752 mmHg 30%
    07:00 +17°C° 0 mm 2 mps 752 mmHg 30%
    08:00 +17°C° 0 mm 3 mps 753 mmHg 31%
    09:00 +18°C° 0.1 mm 3 mps 753 mmHg 34%
    10:00 +18°C° 0.1 mm 4 mps 753 mmHg 37%
    11:00 +19°C° 0.1 mm 5 mps 753 mmHg 40%
    12:00 +20°C° 0 mm 4 mps 752 mmHg 39%
    13:00 +21°C° 0 mm 4 mps 752 mmHg 37%
    14:00 +22°C° 0 mm 4 mps 751 mmHg 35%
    15:00 +21°C° 0 mm 4 mps 751 mmHg 39%
    16:00 +21°C° 0 mm 4 mps 751 mmHg 42%
    17:00 +20°C° 0 mm 4 mps 751 mmHg 45%
    18:00 +19°C° 0 mm 4 mps 751 mmHg 51%
    19:00 +17°C° 0 mm 4 mps 752 mmHg 57%
    20:00 +15°C° 0 mm 4 mps 752 mmHg 63%
    21:00 +15°C° 0.2 mm 4 mps 752 mmHg 68%
    22:00 +14°C° 0.2 mm 3 mps 752 mmHg 72%
    23:00 +15°C° 0.2 mm 2 mps 752 mmHg 77%

    Tomorrow, 21 January, Monday

    Time Temperature Precipitation Wind Pressure Humidity
    00:00 +14°C° 0.3 mm 2 mps 752 mmHg 78%
    01:00 +14°C° 0.3 mm 2 mps 752 mmHg 79%
    02:00 +13°C° 0.3 mm 3 mps 752 mmHg 80%
    03:00 +14°C° 0 mm 2 mps 752 mmHg 80%
    04:00 +14°C° 0 mm 2 mps 751 mmHg 80%
    05:00 +14°C° 0 mm 2 mps 751 mmHg 80%
    06:00 +14°C° 0 mm 2 mps 751 mmHg 79%
    07:00 +14°C° 0 mm 2 mps 752 mmHg 78%
    08:00 +14°C° 0 mm 2 mps 752 mmHg 77%
    09:00 +14°C° 0 mm 3 mps 752 mmHg 72%
    10:00 +14°C° 0 mm 3 mps 752 mmHg 68%
    11:00 +16°C° 0 mm 3 mps 752 mmHg 63%
    12:00 +17°C° 0.2 mm 3 mps 751 mmHg 62%
    13:00 +17°C° 0.2 mm 4 mps 750 mmHg 60%
    14:00 +18°C° 0.2 mm 4 mps 750 mmHg 58%
    15:00 +17°C° 0.1 mm 4 mps 749 mmHg 59%
    16:00 +17°C° 0.1 mm 4 mps 749 mmHg 61%
    17:00 +15°C° 0.1 mm 4 mps 749 mmHg 63%
    18:00 +16°C° 0.2 mm 3 mps 749 mmHg 67%
    19:00 +14°C° 0.2 mm 3 mps 749 mmHg 72%
    20:00 +13°C° 0.2 mm 3 mps 749 mmHg 77%
    21:00 +12°C° 0 mm 3 mps 749 mmHg 79%
    22:00 +12°C° 0 mm 3 mps 749 mmHg 80%
    23:00 +12°C° 0 mm 3 mps 749 mmHg 82%

    Day after tomorrow, 22 January, Tuesday

    Time Temperature Precipitation Wind Pressure Humidity
    00:00 +12°C° 0 mm 3 mps 749 mmHg 84%
    01:00 +11°C° 0 mm 3 mps 749 mmHg 87%
    02:00 +11°C° 0 mm 3 mps 748 mmHg 89%
    03:00 +10°C° 0 mm 3 mps 748 mmHg 89%
    04:00 +10°C° 0 mm 3 mps 748 mmHg 90%
    05:00 +10°C° 0 mm 3 mps 748 mmHg 90%
    06:00 +9°C° 0 mm 3 mps 748 mmHg 89%
    07:00 +9°C° 0 mm 3 mps 749 mmHg 88%
    08:00 +9°C° 0 mm 3 mps 749 mmHg 86%
    09:00 +11°C° 0 mm 4 mps 750 mmHg 76%
    10:00 +14°C° 0 mm 4 mps 750 mmHg 65%
    11:00 +17°C° 0 mm 4 mps 750 mmHg 54%
    12:00 +18°C° 0 mm 4 mps 749 mmHg 47%
    13:00 +19°C° 0 mm 3 mps 749 mmHg 39%
    14:00 +20°C° 0 mm 3 mps 748 mmHg 32%
    15:00 +20°C° 0 mm 2 mps 748 mmHg 32%
    16:00 +20°C° 0 mm 2 mps 748 mmHg 31%
    17:00 +20°C° 0 mm 1 mps 748 mmHg 31%
    18:00 +19°C° 0 mm 1 mps 749 mmHg 34%
    19:00 +18°C° 0 mm 1 mps 750 mmHg 36%
    20:00 +15°C° 0 mm 1 mps 751 mmHg 39%
    21:00 +15°C° 0 mm 2 mps 751 mmHg 41%
    22:00 +15°C° 0 mm 2 mps 751 mmHg 44%
    23:00 +14°C° 0 mm 2 mps 752 mmHg 46%

    23 January, Wednesday

    Time Temperature Precipitation Wind Pressure Humidity
    00:00 +14°C° 0 mm 2 mps 752 mmHg 50%
    01:00 +14°C° 0 mm 2 mps 752 mmHg 53%
    02:00 +13°C° 0 mm 2 mps 752 mmHg 57%
    03:00 +13°C° 0 mm 2 mps 752 mmHg 63%
    04:00 +12°C° 0 mm 2 mps 752 mmHg 68%
    05:00 +12°C° 0 mm 2 mps 752 mmHg 73%
    06:00 +12°C° 0 mm 2 mps 752 mmHg 78%
    07:00 +10°C° 0 mm 2 mps 753 mmHg 82%
    08:00 +10°C° 0 mm 3 mps 754 mmHg 87%
    09:00 +12°C° 0 mm 3 mps 754 mmHg 77%
    10:00 +16°C° 0 mm 3 mps 754 mmHg 66%
    11:00 +18°C° 0 mm 3 mps 754 mmHg 56%
    12:00 +19°C° 0 mm 3 mps 754 mmHg 50%
    13:00 +19°C° 0 mm 3 mps 753 mmHg 45%
    14:00 +20°C° 0 mm 3 mps 752 mmHg 39%
    15:00 +20°C° 0 mm 2 mps 752 mmHg 39%
    16:00 +20°C° 0 mm 2 mps 752 mmHg 38%
    17:00 +19°C° 0 mm 2 mps 752 mmHg 38%
    18:00 +18°C° 0 mm 2 mps 752 mmHg 41%
    19:00 +17°C° 0 mm 3 mps 753 mmHg 44%
    20:00 +14°C° 0 mm 3 mps 754 mmHg 48%
    21:00 +14°C° 0 mm 3 mps 754 mmHg 49%
    22:00 +14°C° 0 mm 2 mps 754 mmHg 51%
    23:00 +14°C° 0 mm 2 mps 754 mmHg 52%

    24 January, Thursday

    Time Temperature Precipitation Wind Pressure Humidity
    00:00 +13°C° 0 mm 2 mps 754 mmHg 57%
    01:00 +13°C° 0 mm 2 mps 754 mmHg 61%
    02:00 +12°C° 0 mm 2 mps 754 mmHg 65%
    03:00 +12°C° 0 mm 2 mps 754 mmHg 71%
    04:00 +10°C° 0 mm 3 mps 754 mmHg 76%
    05:00 +10°C° 0 mm 3 mps 754 mmHg 82%
    06:00 +10°C° 0 mm 3 mps 755 mmHg 82%
    07:00 +10°C° 0 mm 3 mps 756 mmHg 81%
    08:00 +9°C° 0 mm 3 mps 756 mmHg 80%
    09:00 +12°C° 0 mm 3 mps 756 mmHg 69%
    10:00 +14°C° 0 mm 3 mps 757 mmHg 57%
    11:00 +17°C° 0 mm 3 mps 757 mmHg 45%
    12:00 +18°C° 0 mm 4 mps 756 mmHg 40%
    13:00 +19°C° 0 mm 4 mps 755 mmHg 35%
    14:00 +20°C° 0 mm 4 mps 754 mmHg 30%
    15:00 +20°C° 0 mm 4 mps 754 mmHg 30%
    16:00 +19°C° 0 mm 4 mps 754 mmHg 30%
    17:00 +19°C° 0 mm 4 mps 754 mmHg 30%
    18:00 +17°C° 0 mm 3 mps 755 mmHg 34%
    19:00 +16°C° 0 mm 3 mps 755 mmHg 38%
    20:00 +14°C° 0 mm 2 mps 756 mmHg 42%
    21:00 +14°C° 0 mm 2 mps 756 mmHg 43%
    22:00 +13°C° 0 mm 2 mps 756 mmHg 45%
    23:00 +12°C° 0 mm 3 mps 756 mmHg 46%

    25 January, Friday

    Time Temperature Precipitation Wind Pressure Humidity
    00:00 +11°C° 0 mm 3 mps 756 mmHg 49%
    01:00 +11°C° 0 mm 3 mps 755 mmHg 53%
    02:00 +10°C° 0 mm 3 mps 755 mmHg 56%
    03:00 +10°C° 0 mm 3 mps 755 mmHg 57%
    04:00 +9°C° 0 mm 3 mps 755 mmHg 58%
    05:00 +9°C° 0 mm 3 mps 755 mmHg 59%
    06:00 +9°C° 0 mm 3 mps 755 mmHg 58%
    07:00 +9°C° 0 mm 2 mps 756 mmHg 57%
    08:00 +9°C° 0 mm 2 mps 756 mmHg 56%
    09:00 +12°C° 0 mm 2 mps 756 mmHg 47%
    10:00 +14°C° 0 mm 3 mps 756 mmHg 39%
    11:00 +17°C° 0 mm 3 mps 756 mmHg 31%
    12:00 +18°C° 0 mm 3 mps 755 mmHg 26%
    13:00 +19°C° 0 mm 3 mps 755 mmHg 22%
    14:00 +20°C° 0 mm 3 mps 754 mmHg 18%
    15:00 +20°C° 0 mm 3 mps 754 mmHg 18%
    16:00 +19°C° 0 mm 3 mps 754 mmHg 18%
    17:00 +19°C° 0 mm 2 mps 754 mmHg 18%
    18:00 +17°C° 0 mm 2 mps 754 mmHg 20%
    19:00 +16°C° 0 mm 2 mps 754 mmHg 22%
    20:00 +14°C° 0 mm 2 mps 755 mmHg 24%
    21:00 +13°C° 0 mm 1 mps 755 mmHg 25%
    22:00 +13°C° 0 mm 1 mps 755 mmHg 26%
    23:00 +13°C° 0 mm 1 mps 755 mmHg 26%
    Show more